Regional Weather Roundup
Issued by NWS

Home | Current Version | Previous Version | Graphics & Text | Print | Product List | Glossary Off
Versions: 1 2 3 4 5 6 7 8 9 10 11 12 13 14 15 16 17 18 19 20 21 22 23 24 25 26 27 28 29 30 31 32 33 34 35 36 37 38 39 40 41 42 43 44 45 46 47 48 49 50

000
ASUS43 KDMX 290307
RWRIA

WEATHER ROUNDUP FOR IOWA
NATIONAL WEATHER SERVICE DES MOINES IA
1000 PM CDT THU AUG 28 2014

NOTE: "FAIR" INDICATES FEW OR NO CLOUDS BELOW 12,000 FEET WITH NO
SIGNIFICANT WEATHER AND/OR OBSTRUCTIONS TO VISIBILITY.

* - THESE STATIONS ARE NOT NWS STATIONS...THUS NOT UNDER NWS
QUALITY CONTROL.  THEY ALSO DO NOT REPORT WEATHER SUCH
AS PRECIPITATION OR FOG.

IAZ001>003-012>014-020>022-031>034-043>046-290400-
   NORTHWEST IOWA

CITY           SKY/WX    TMP DP  RH WIND       PRES   REMARKS
CARROLL *      CLOUDY    73  73 100 SE8G14    29.88S FOG
DENISON *      PTCLDY    75  73  94 SE10      29.85R
LE MARS *      CLOUDY    73  72  94 SE10      29.85R
ORANGE CITY *  CLOUDY    73  70  88 CALM      29.86R
SHELDON *      CLOUDY    72  72 100 SE8       29.85S
SIOUX CITY     CLOUDY    75  72  90 SE7       29.84R
SPENCER        PTCLDY    72  70  93 SE10      29.87R
STORM LAKE *   CLOUDY    73  73 100 SE9G15    29.87S
$$

IAZ055>058-069>071-079>083-090>094-290400-
   SOUTHWEST IOWA

CITY           SKY/WX    TMP DP  RH WIND       PRES   REMARKS
ATLANTIC *     DRIZZLE   70  66  88 E7        29.89R
AUDUBON *      CLEAR     73  70  88 S8        29.90R
CLARINDA *     MOCLDY    73  72  94 CALM      29.89R
COUNCIL BLFS * CLEAR     73  73 100 E8        29.85S
CRESTON *      CLOUDY    68  64  88 N7        29.91F
HARLAN  *      CLEAR     72  70  94 SE5       29.91R
LAMONI         PTCLDY    75  73  93 E6        29.90S
RED OAK *      CLOUDY    72  70  94 E10G17    29.89R
SHENANDOAH *   MOCLDY    72  72 100 NE7       29.87R
$$

IAZ047>049-059>061-072>074-084-290400-
   CENTRAL IOWA

CITY           SKY/WX    TMP DP  RH WIND       PRES   REMARKS
AMES           CLOUDY    71  70  96 SE8       29.90F
ANKENY *       PTCLDY    72  72 100 SE6       29.90S
CHARITON *     CLOUDY    72  72 100 SE8       29.92S
DES MOINES     CLOUDY    74  71  91 SE9       29.89F THUNDER
GRINNELL*      MOCLDY    68  66  94 E8        29.95S FOG
KNOXVILLE *    MOCLDY    70  68  94 E7        29.91S
MARSHALLTOWN   CLOUDY    71  69  93 SE10      29.93S
PELLA *        PTCLDY    70  70 100 SE7       29.94S
PERRY *        RAIN      70  68  94 CALM      29.90F
$$

IAZ004>006-015-016-023>025-035-036-290400-
   NORTH CENTRAL IOWA

CITY           SKY/WX    TMP DP  RH WIND       PRES   REMARKS
ALGONA *       CLOUDY    72  72 100 SE9       29.89S
CLARION *      CLEAR     72  72 100 SE9       29.90F
ESTHERVILLE    CLOUDY    67  67 100 SE5       29.88S FOG
FORT DODGE *   CLOUDY    72  70  94 SE8       29.90R
MASON CITY     CLOUDY    69  68  96 SE12      29.93F FOG
FOREST CITY *  CLOUDY    70  70 100 SE9       29.91F FOG
IOWA FALLS *   MOCLDY    70  68  94 SE8       29.93F
$$

IAZ007>011-017>019-026>030-037>042-050>054-066-290400-
   NORTHEAST IOWA

CITY           SKY/WX    TMP DP  RH WIND       PRES   REMARKS
CEDAR RAPIDS   CLOUDY    69  69 100 SE5       29.96R
CHARLES CITY * CLOUDY    68  66  94 SE9G15    29.96S FOG
CLINTON *      MOCLDY    68  66  94 SE9       30.00S
DECORAH *      CLOUDY    66  64  94 VRB6      29.96R
DUBUQUE        CLOUDY    67  65  93 SE9       29.99S
MONTICELLO *   CLOUDY    68  68 100 SE10      29.98R
OELWEIN *      CLOUDY    68  68 100 SE10      29.97S
WATERLOO       CLOUDY    70  67  90 SE9       29.94S
$$

IAZ064-065-067-068-078-290400-
   EAST CENTRAL IOWA

CITY           SKY/WX    TMP DP  RH WIND       PRES   REMARKS
DAVENPORT      MOCLDY    69  67  93 SE9       29.98R
IOWA CITY      CLOUDY    69  68  96 E5        29.97R
MT. PLEASANT * PTCLDY    70  70 100 SE8       29.97R
MUSCATINE *    MOCLDY    72  68  88 SE8G14    29.97R
QUAD CITIES    MOCLDY    70  67  90 SE10      29.97S
$$

IAZ062-063-075>077-085>089-095>099-290400-
   SOUTHEAST IOWA

CITY           SKY/WX    TMP DP  RH WIND       PRES   REMARKS
BURLINGTON     MOCLDY    71  70  96 E9        29.97R
FAIRFIELD *    CLOUDY    70  68  94 SE10      29.95S
FORT MADISON * PTCLDY    72  72 100 E7        29.98R
KEOKUK *       CLEAR     72  70  94 E14       29.96R
OSKALOOSA *      N/A     70  68  94 SE8       29.94S
CENTERVILLE *  CLEAR     72  72 100 E7        29.94S
OTTUMWA        PTCLDY    70  69  97 SE9       29.93R
WASHINGTON *   MOCLDY    68  68 100 SE7       29.96R
$$

ABBREVIATIONS USED IN REMARKS
   TC - TEMPERATURES IN CELSIUS
  WCI - WIND CHILL INDEX
   HX - HEAT INDEX
  VSB - VISIBILITY
$$




USA.gov is the U.S. government's official web portal to all federal, state and local government web resources and services.